[Iaude] MPEC K95: 2024 KF [a=1.09,e=0.13,i=12.8,H=23.0]
    mpec at cfa.harvard.edu 
    mpec at cfa.harvard.edu
       
    Mon May 27 01:57:25 EDT 2024
    
    
  
M.P.E.C. 2024-K95                                  Issued 2024 May 27, 05:56 UT
     The Minor Planet Electronic Circulars contain information on unusual
         minor planets, routine data on comets and natural satellites,
         and occasional editorial announcements.  They are published
    on behalf of Division F of the International Astronomical Union by the
          Minor Planet Center, Smithsonian Astrophysical Observatory,
                          Cambridge, MA 02138, U.S.A.
			  
             Prepared using the Tamkin Foundation Computer Network
                              MPC at CFA.HARVARD.EDU
            URL https://www.minorplanetcenter.net/    ISSN 1523-6714
                                    2024 KF                                     
Observations:
     K24K00F* C2024 05 25.99404715 50 49.414-25 34 36.70         17.90oVEK095M22
     K24K00F  C2024 05 25.99780915 50 48.994-25 33 59.94         17.98oVEK095M22
     K24K00F  C2024 05 26.00297815 50 48.382-25 33 07.81         17.97oVEK095M22
     K24K00F  C2024 05 26.01530815 50 47.011-25 31 05.16         18.13oVEK095M22
     K24K00F  C2024 05 26.06302315 50 41.851-25 23 04.63         17.69oVEK095M22
     K24K00F  C2024 05 26.06344415 50 52.298-25 23 08.81         18.16oVEK095W68
     K24K00F  C2024 05 26.06347415 50 41.820-25 23 00.67         18.09oVEK095M22
     K24K00F  C2024 05 26.06392515 50 41.794-25 22 55.96         17.80oVEK095M22
     K24K00F  C2024 05 26.06434515 50 52.258-25 22 59.77         17.77oVEK095W68
     K24K00F  C2024 05 26.06437615 50 41.690-25 22 51.53         18.17oVEK095M22
     K24K00F  C2024 05 26.06479615 50 52.195-25 22 55.56         17.84oVEK095W68
     K24K00F  C2024 05 26.06482715 50 41.669-25 22 47.10         17.69oVEK095M22
     K24K00F  C2024 05 26.06524615 50 52.162-25 22 51.38         17.61oVEK095W68
     K24K00F  C2024 05 26.06795015 50 51.859-25 22 24.64         18.26oVEK095W68
     K24K00F  C2024 05 26.07161515 50 51.466-25 21 49.39         17.90oVEK095W68
     K24K00F  C2024 05 26.07887915 50 50.72 -25 20 38.4                WEK095X09
     K24K00F  C2024 05 26.08309915 50 50.23 -25 19 56.4                WEK095X09
     K24K00F KC2024 05 26.19292115 50 42.094-25 03 34.34         17.78GVEK095I52
     K24K00F KC2024 05 26.19377315 50 42.000-25 03 26.28         17.78GVEK095I52
     K24K00F KC2024 05 26.19462715 50 41.899-25 03 17.82         18.13GVEK095I52
     K24K00F KC2024 05 26.19549615 50 41.802-25 03 09.40         18.11GVEK095I52
     K24K00F KC2024 05 26.31363 15 50 29.426-24 43 41.30         18.1 GVEK095U52
     K24K00F KC2024 05 26.31734 15 50 28.982-24 43 04.48         17.8 GVEK095U52
     K24K00F KC2024 05 26.32104 15 50 28.526-24 42 26.60         17.9 GVEK095U52
     K24K00F KC2024 05 26.45746 15 50 22.91 -24 17 12.9          18.0 VqEK095E23
     K24K00F KC2024 05 26.47077 15 50 21.45 -24 14 59.4          18.2 VqEK095E23
     K24K00F KC2024 05 26.48408 15 50 19.94 -24 12 46.0          18.0 VqEK095E23
     K24K00F KC2024 05 26.89034615 49 48.59 -23 05 11.4          17.6 GXEK095595
     K24K00F KC2024 05 26.89649115 49 47.95 -23 04 07.4          18.1 GXEK095595
     K24K00F KC2024 05 26.90243615 49 47.27 -23 03 06.1          18.1 GXEK095595
     K24K00F  C2024 05 27.20337 15 49 26.54 -22 09 58.7          18.0 VtEK095V27
     K24K00F  C2024 05 27.21634 15 49 25.13 -22 07 41.0          18.9 VtEK095V27
     K24K00F  C2024 05 27.21870 15 49 24.81 -22 07 17.0          17.7 VtEK095V27
Observer details:
595 Farra d'Isonzo.  Observer E. Pettarin.  0.61-m f/4.5 reflector + CCD.
E23 Arcadia.  Observer A. Hidas.  0.35-m f/1.9 reflector + CCD.
I52 Steward Observatory, Mt. Lemmon Station.  Observer R. A. Kowalski.
    Measurers T. Beuden, V. F. Carvajal, D. Fay, J. B. Fazekas, D. C. Fuls, A.
    R. Gibbs, A. D. Grauer, H. Groeller, J. K. Hogan, R. A. Kowalski, S. M.
    Larson, G. J. Leonard, D. Rankin, R. L. Seaman, F. C. Shelly, K. W.
    Wierzchos.  1.0-m prime focus + CCD.
M22 ATLAS South Africa, Sutherland.  Observers L. Denneau, R. Siverd, J.
    Tonry, H. Weiland.  Measurers L. Denneau, N. Erasmus, A. Fitzsimmons, J.
    Robinson, R. Siverd, J. Tonry, H. Weiland.  0.5-m Reflector + CCD.
U52 Shasta Valley Observatory, Grenada.  Observers J. E. Rogers, B. Haeusler.
    Measurers J. E. Rogers, D. Parrott.  0.30-m f/5.2 Helin Telescope + CCD.
V27 North Mesa Observatory, Los Alamos.  Observer B. K. Kendrick.  0.25-m f/6
    reflector + CCD.
W68 ATLAS Chile, Rio Hurtado.  Observers L. Denneau, R. Siverd, J. Tonry, H.
    Weiland.  Measurers L. Denneau, N. Erasmus, A. Fitzsimmons, J. Robinson,
    R. Siverd, J. Tonry, H. Weiland.  0.5-m Reflector + CCD.
X09 Deep Random Survey, Rio Hurtado.  Observers A. Schnabel, D. Ruhela.
    Measurer S. Deen.  0.43-m reflector + CMOS.
Orbital elements:
2024 KF                                                  Earth MOID = 0.0591 AU
Epoch 2024 Mar. 31.0 TT = JDT 2460400.5                 MPC                     
M 231.80335              (2000.0)            P               Q                  
n   0.86102143     Peri.   93.30786     +0.91420637     +0.35057377             
a   1.0942757      Node   246.25040     -0.39941842     +0.86427124             
e   0.1304235      Incl.   12.83199     +0.06849554     +0.36073987             
P   1.14           H   23.03          G   0.15           U   7                  
Residuals in seconds of arc
240525 M22  0.0   0.5+    240526 M22  0.1-  0.4-    240526 U52  0.0   0.3-
240525 M22  0.1+  0.2-    240526 W68  0.0   0.1-    240526 U52  0.4-  0.4+
240526 M22  0.2-  0.3+    240526 W68  0.1-  0.4+    240526 E23  0.1-  0.0
240526 M22  0.1+  0.3-    240526 W68  0.0   0.0     240526 E23  0.1+  0.2+
240526 M22  0.1-  0.3+    240526 X09  0.7+  0.1+    240526 E23  0.1-  0.1-
240526 W68  0.8-  0.0     240526 X09  0.4+  0.9+    240526 595  0.0   0.0
240526 M22  0.1+  0.3-    240526 I52  0.1+  0.2+    240526 595  0.5+  0.2+
240526 M22  0.4+  0.1-    240526 I52  0.1+  0.1-    240526 595  0.2+  0.3-
240526 W68  0.0   0.3+    240526 I52  0.0   0.0     240527 V27  0.8-  0.2-
240526 M22  0.4-  0.2-    240526 I52  0.0   0.2-    240527 V27  0.4+  0.5+
240526 W68  0.2-  0.1+    240526 U52  0.3+  0.1+    240527 V27  0.3-  0.4-
Ephemeris:
2024 KF                  a,e,i = 1.09, 0.13, 13                  q = 0.9516
Date    TT    R. A. (2000) Decl.     Delta      r    Elong.  Phase     V
2024 04 27    16 07 14.1 -55 54 17   0.1939  1.1475   133.0    39.9    21.3
...
2024 05 12    16 05 06.7 -48 53 32   0.1247  1.1176   147.7    28.9    20.0
...
2024 05 20    15 57 50.2 -38 49 31   0.09356 1.1008   161.0    17.4    19.0
...
2024 05 26    15 50 52.1 -25 34 04   0.07535 1.0879   173.4     6.1    18.1
2024 05 27    15 49 38.6 -22 44 20   0.07296 1.0857   173.7     5.8    18.0
2024 05 28    15 48 24.6 -19 43 34   0.07080 1.0836   172.4     7.1    18.0
...
2024 06 03    15 41 01.8 +01 29 24   0.06344 1.0706   151.6    26.8    18.4
...
2024 06 11    15 32 22.3 +29 51 49   0.06976 1.0533   121.3    55.4    19.4
...
2024 06 26    15 22 21.2 +58 54 04   0.1086  1.0222    90.0    83.9    21.2
A. U. Tomatic                (C) Copyright 2024 MPC           M.P.E.C. 2024-K95
    
    
More information about the Iaude
mailing list